Weather History for KCDA - September, 2013

Change the Weather History Date:

Friday, September 20, 2013

  Actual Average (K1V4) Record (K1V4)
Temperature  
Mean Temperature 60 °F 58 °F  
Max Temperature 76 °F 69 °F 88 °F (1946)
Min Temperature 43 °F 48 °F 28 °F (1979)
Degree Days  
Heating Degree Days 6 7  
Month to date heating degree days 90  
Since 1 July heating degree days 140  
Cooling Degree Days 0 1  
Month to date cooling degree days 31  
Year to date cooling degree days 429  
Growing Degree Days 10 (Base 50)    
Moisture  
Dew Point 49 °F    
Average Humidity 70    
Maximum Humidity 92    
Minimum Humidity 40    
Precipitation  
Precipitation 0.00 in 0.12 in 1.43 in (1989)
Month to date precipitation 2.12  
Year to date precipitation 27.88  
Sea Level Pressure  
Sea Level Pressure 30.06 in    
Wind  
Wind Speed 2 mph (South)    
Max Wind Speed 12 mph    
Max Gust Speed 9 mph    
Visibility 8 miles    
Events Fog    
T = Trace of Precipitation, MM = Missing Value Source: NWS Daily Summary

Daily Weather History Graph

Daily Weather History Graph

Search for Another Location

Airport or City:

Trip Planner

Search our weather history database for the weather conditions in past years. The results will help you decide how hot, cold, wet, or windy it might be!

Date:

Astronomy

Sep. 20, 2013 Rise Set
Actual Time 6:33 AM EDT 6:48 PM EDT
Civil Twilight 6:03 AM EDT 7:17 PM EDT
Nautical Twilight 5:29 AM EDT 7:52 PM EDT
Astronomical Twilight 4:54 AM EDT 8:27 PM EDT
Moon 7:15 PM EDT (9/20) 7:49 AM EDT (9/20)
Length of Visible Light 13h 14m
Length of Day
12h 15m
Full, 98% of the Moon is Illuminated
Sep 20
Full
Sep 26
Last Quarter
Oct 4
New
Oct 11
First Quarter
Oct 18
Full

Hourly Weather History & Observations

Time (EDT) Temp. Dew Point Humidity Pressure Visibility Wind Dir Wind Speed Gust Speed Precip Events Conditions
12:15 AM 50.7 °F 47.1 °F 87% 30.10 in 10.0 mi Calm Calm - N/A   Clear
12:35 AM 50.2 °F 46.8 °F 88% 30.10 in 10.0 mi Calm Calm - N/A   Clear
12:55 AM 49.6 °F 46.8 °F 90% 30.11 in 10.0 mi Calm Calm - N/A   Clear
1:15 AM 49.5 °F 46.6 °F 90% 30.10 in 10.0 mi Calm Calm - N/A   Clear
1:35 AM 50.0 °F 46.6 °F 88% 30.10 in 10.0 mi Calm Calm - N/A   Clear
1:55 AM 49.3 °F 46.4 °F 90% 30.10 in 10.0 mi Calm Calm - N/A   Clear
2:15 AM 48.4 °F 45.5 °F 90% 30.09 in 7.0 mi Calm Calm - N/A   Clear
2:35 AM 47.7 °F 45.0 °F 90% 30.09 in 7.0 mi Calm Calm - N/A   Clear
2:55 AM 47.5 °F 44.8 °F 90% 30.09 in 1.5 mi Calm Calm - N/A   Mist
3:15 AM 47.7 °F 45.0 °F 90% 30.09 in 4.0 mi Calm Calm - N/A   Clear
3:35 AM 47.5 °F 44.8 °F 90% 30.09 in 2.0 mi Calm Calm - N/A   Clear
3:55 AM 48.0 °F 45.5 °F 91% 30.09 in 10.0 mi Calm Calm - N/A   Clear
4:15 AM 46.6 °F 43.9 °F 90% 30.09 in 0.5 mi Calm Calm - N/A Fog Fog
4:35 AM 47.1 °F 44.6 °F 91% 30.10 in 3.0 mi Calm Calm - N/A   Clear
4:55 AM 47.1 °F 44.8 °F 92% 30.10 in 0.8 mi Calm Calm - N/A   Mist
5:15 AM 45.9 °F 43.5 °F 92% 30.09 in 0.2 mi Calm Calm - N/A Fog Fog
5:35 AM 45.1 °F 43.0 °F 92% 30.09 in 0.2 mi Calm Calm - N/A Fog Fog
5:55 AM 44.8 °F 42.3 °F 91% 30.10 in 5.0 mi Calm Calm - N/A   Clear
6:15 AM 43.5 °F 41.2 °F 91% 30.10 in 0.5 mi Calm Calm - N/A Fog Fog
6:35 AM 43.7 °F 41.4 °F 91% 30.10 in 0.2 mi Calm Calm - N/A Fog Fog
6:55 AM 44.8 °F 42.4 °F 91% 30.11 in 0.2 mi Calm Calm - N/A Fog Fog
7:15 AM 45.0 °F 42.8 °F 92% 30.11 in 0.2 mi Calm Calm - N/A Fog Fog
7:35 AM 45.9 °F 43.5 °F 92% 30.12 in 0.2 mi Calm Calm - N/A Fog Fog
7:55 AM 47.3 °F 45.0 °F 92% 30.12 in 0.5 mi Calm Calm - N/A Fog Fog
8:15 AM 48.9 °F 46.6 °F 92% 30.13 in 3.0 mi Calm Calm - N/A   Scattered Clouds
8:35 AM 49.5 °F 47.1 °F 92% 30.13 in 10.0 mi Calm Calm - N/A   Clear
8:55 AM 51.4 °F 49.1 °F 92% 30.13 in 10.0 mi Calm Calm - N/A   Clear
9:15 AM 52.2 °F 49.8 °F 92% 30.13 in 10.0 mi Calm Calm - N/A   Clear
9:35 AM 53.8 °F 51.6 °F 92% 30.12 in 10.0 mi SW 3.5 mph - N/A   Clear
9:55 AM 54.5 °F 52.2 °F 92% 30.12 in 10.0 mi Calm Calm - N/A   Clear
10:15 AM 56.5 °F 53.6 °F 90% 30.12 in 10.0 mi Calm Calm - N/A   Clear
10:35 AM 61.9 °F 50.7 °F 67% 30.11 in 10.0 mi Calm Calm - N/A   Clear
10:55 AM 64.4 °F 51.4 °F 63% 30.10 in 10.0 mi South 4.6 mph - N/A   Clear
11:15 AM 66.0 °F 52.2 °F 61% 30.09 in 10.0 mi SSE 5.8 mph - N/A   Clear
11:35 AM 67.3 °F 52.5 °F 59% 30.08 in 10.0 mi South 4.6 mph - N/A   Clear
11:55 AM 68.5 °F 52.5 °F 57% 30.08 in 10.0 mi South 5.8 mph - N/A   Clear
12:15 PM 70.7 °F 51.8 °F 51% 30.07 in 10.0 mi SSW 5.8 mph - N/A   Clear
12:35 PM 71.2 °F 51.1 °F 49% 30.07 in 10.0 mi SSE 6.9 mph - N/A   Clear
12:55 PM 72.0 °F 50.9 °F 47% 30.06 in 10.0 mi South 6.9 mph - N/A   Clear
1:15 PM 73.4 °F 50.7 °F 45% 30.06 in 10.0 mi South 6.9 mph - N/A   Clear
1:35 PM 74.7 °F 50.9 °F 43% 30.05 in 10.0 mi SSE 8.1 mph - N/A   Clear
1:55 PM 74.5 °F 50.5 °F 43% 30.05 in 10.0 mi SSE 6.9 mph - N/A   Clear
2:15 PM 75.6 °F 50.2 °F 41% 30.04 in 10.0 mi South 8.1 mph - N/A   Clear
2:35 PM 75.6 °F 49.6 °F 40% 30.02 in 10.0 mi SSE 8.1 mph - N/A   Clear
2:55 PM 75.7 °F 50.4 °F 41% 30.02 in 10.0 mi SSE 11.5 mph - N/A   Clear
3:15 PM 76.1 °F 50.0 °F 40% 30.02 in 10.0 mi SSE 8.1 mph - N/A   Clear
3:35 PM 76.1 °F 50.0 °F 40% 30.01 in 10.0 mi South 9.2 mph - N/A   Clear
3:55 PM 76.1 °F 50.0 °F 40% 30.01 in 10.0 mi SSE 10.4 mph - N/A   Clear
4:15 PM 75.7 °F 49.6 °F 40% 30.01 in 10.0 mi SSE 8.1 mph - N/A   Clear
4:35 PM 75.6 °F 49.5 °F 40% 30.00 in 10.0 mi South 8.1 mph - N/A   Clear
4:55 PM 75.6 °F 50.0 °F 41% 30.00 in 10.0 mi South 5.8 mph 9.2 mph N/A   Clear
5:15 PM 74.7 °F 49.8 °F 42% 29.99 in 10.0 mi South 10.4 mph - N/A   Clear
5:35 PM 74.3 °F 50.7 °F 43% 30.00 in 10.0 mi South 5.8 mph - N/A   Clear
5:55 PM 73.8 °F 50.9 °F 45% 30.00 in 10.0 mi South 6.9 mph - N/A   Clear
6:15 PM 71.8 °F 51.4 °F 49% 30.00 in 10.0 mi South 5.8 mph - N/A   Clear
6:35 PM 70.3 °F 52.0 °F 52% 29.99 in 10.0 mi South 5.8 mph - N/A   Clear
6:55 PM 68.5 °F 51.8 °F 55% 29.99 in 10.0 mi South 6.9 mph - N/A   Clear
7:15 PM 67.6 °F 50.9 °F 55% 29.99 in 10.0 mi SSE 6.9 mph - N/A   Clear
7:35 PM 66.7 °F 51.1 °F 57% 29.99 in 10.0 mi SSE 5.8 mph - N/A   Clear
7:55 PM 66.7 °F 52.0 °F 59% 30.00 in 10.0 mi South 5.8 mph - N/A   Clear
8:15 PM 65.7 °F 52.2 °F 62% 30.00 in 10.0 mi SSW 3.5 mph - N/A   Clear
8:35 PM 64.8 °F 52.7 °F 65% 30.00 in 10.0 mi Calm Calm - N/A   Clear
8:55 PM 64.0 °F 52.7 °F 67% 30.00 in 10.0 mi South 4.6 mph - N/A   Clear
9:15 PM 64.0 °F 52.3 °F 66% 30.00 in 10.0 mi South 4.6 mph - N/A   Clear
9:35 PM 63.5 °F 52.0 °F 66% 30.00 in 10.0 mi South 4.6 mph - N/A   Clear
9:55 PM 63.5 °F 51.8 °F 66% 30.00 in 10.0 mi South 4.6 mph - N/A   Clear
10:15 PM 61.9 °F 51.3 °F 68% 30.00 in 10.0 mi South 5.8 mph - N/A   Clear
10:35 PM 62.1 °F 51.4 °F 68% 30.00 in 10.0 mi South 4.6 mph - N/A   Clear
10:55 PM 61.9 °F 51.3 °F 68% 30.00 in 10.0 mi SSW 3.5 mph - N/A   Clear
11:15 PM 61.5 °F 51.8 °F 70% 29.99 in 10.0 mi South 4.6 mph - N/A   Clear
11:35 PM 61.2 °F 52.2 °F 72% 29.98 in 10.0 mi SSE 6.9 mph - N/A   Clear
11:55 PM 60.6 °F 52.0 °F 73% 29.98 in 10.0 mi South 4.6 mph - N/A   Clear